Location: Babice
(50.3480°N, 22.9363°E)
Time: 11:38:36
(UTC+00:00)

Cosmos 1242 Rocket - Pass Details

Date: 14 July 2020
Orbit: 448 x 487 km, 81.2° (Epoch: 07 August)

Event Time Altitude Azimuth Distance (km) Brightness Sun altitude
Rises 01:41:14 0° 343° (NNW) 2,466 6.6 -7.0°
Reaches altitude 10° 01:43:20 10° 339° (NNW) 1,590 5.5 -6.8°
Maximum altitude 01:46:43 53° 262° (W) 567 2.6 -6.4°
Drops below altitude 10° 01:50:05 10° 185° (S) 1,586 4.7 -6.1°
Sets 01:52:11 0° 180° (S) 2,459 5.7 -5.8°
